TimeMDT,TemperatureF,Dew PointF,Humidity,Sea Level PressureIn,VisibilityMPH,Wind Direction,Wind SpeedMPH,Gust SpeedMPH,PrecipitationIn,Events,Conditions,WindDirDegrees,DateUTC
12:53 AM,77.0,61.0,58,29.78,10.0,NE,19.6,25.3,N/A,,Clear,40,2013-08-07 06:53:00
1:53 AM,73.9,61.0,64,29.78,10.0,NE,10.4,-,N/A,,Clear,50,2013-08-07 07:53:00
2:53 AM,73.0,61.0,66,29.78,10.0,ENE,9.2,-,N/A,,Partly Cloudy,70,2013-08-07 08:53:00
3:53 AM,71.1,61.0,70,29.78,10.0,NNE,6.9,-,N/A,,Clear,30,2013-08-07 09:53:00
4:53 AM,70.0,60.1,71,29.79,10.0,NNW,4.6,-,N/A,,Clear,330,2013-08-07 10:53:00
5:53 AM,69.1,60.1,73,29.81,10.0,North,3.5,-,N/A,,Clear,350,2013-08-07 11:53:00
6:53 AM,72.0,61.0,68,29.82,10.0,North,5.8,-,N/A,,Clear,350,2013-08-07 12:53:00
7:53 AM,75.9,60.1,58,29.84,10.0,NE,5.8,-,N/A,,Clear,40,2013-08-07 13:53:00
8:53 AM,78.1,59.0,52,29.84,10.0,East,3.5,-,N/A,,Clear,100,2013-08-07 14:53:00
9:53 AM,81.0,60.1,49,29.83,10.0,East,4.6,-,N/A,,Clear,80,2013-08-07 15:53:00
10:53 AM,84.9,59.0,41,29.83,10.0,North,4.6,-,N/A,,Clear,10,2013-08-07 16:53:00
11:53 AM,87.1,57.0,36,29.81,10.0,Calm,Calm,-,N/A,,Clear,0,2013-08-07 17:53:00
12:53 PM,90.0,57.0,33,29.79,10.0,Variable,3.5,-,N/A,,Clear,0,2013-08-07 18:53:00
1:53 PM,96.1,54.0,24,29.77,10.0,East,9.2,-,N/A,,Clear,100,2013-08-07 19:53:00
2:53 PM,93.9,50.0,22,29.74,10.0,WSW,5.8,-,N/A,,Clear,240,2013-08-07 20:53:00
3:08 PM,93.2,50.0,23,29.95,10.0,WSW,3.5,-,N/A,Thunderstorm,Clear,240,2013-08-07 21:08:00
3:51 PM,95.0,55.4,26,29.92,10.0,ENE,8.1,-,N/A,,Clear,70,2013-08-07 21:51:00
3:53 PM,93.9,54.0,26,29.71,10.0,East,6.9,-,N/A,,Clear,80,2013-08-07 21:53:00
4:53 PM,93.0,52.0,25,29.70,10.0,ENE,17.3,-,N/A,,Partly Cloudy,70,2013-08-07 22:53:00
5:10 PM,89.6,57.2,33,29.91,10.0,East,20.7,26.5,N/A,Thunderstorm,Mostly Cloudy,90,2013-08-07 23:10:00
5:48 PM,78.8,55.4,44,29.95,1.8,West,19.6,49.5,0.13,Rain-Thunderstorm,Heavy Thunderstorms and Rain,280,2013-08-07 23:48:00
5:53 PM,78.1,54.0,43,29.75,1.5,NNE,5.8,49.5,0.16,Rain-Thunderstorm,Heavy Thunderstorms and Rain,20,2013-08-07 23:53:00
5:57 PM,75.2,57.2,53,29.93,3.0,NNE,9.2,16.1,0.00,Rain-Thunderstorm,Light Thunderstorms and Rain,30,2013-08-07 23:57:00
6:32 PM,80.6,62.6,54,29.92,10.0,East,12.7,-,0.00,Rain,Light Rain,100,2013-08-08 00:32:00
6:53 PM,78.1,61.0,56,29.74,10.0,East,19.6,27.6,0.00,,Partly Cloudy,80,2013-08-08 00:53:00
7:53 PM,78.1,57.9,50,29.76,10.0,SE,18.4,24.2,N/A,,Clear,130,2013-08-08 01:53:00
8:53 PM,77.0,57.9,52,29.74,10.0,SSE,12.7,-,N/A,,Clear,150,2013-08-08 02:53:00
9:53 PM,75.0,59.0,57,29.75,10.0,South,10.4,-,N/A,,Clear,170,2013-08-08 03:53:00
10:36 PM,78.8,57.2,47,29.99,10.0,NNE,9.2,29.9,N/A,,Overcast,20,2013-08-08 04:36:00
10:53 PM,73.0,62.1,68,29.80,10.0,NE,17.3,25.3,N/A,,Overcast,40,2013-08-08 04:53:00
11:53 PM,70.0,61.0,73,29.81,10.0,NE,18.4,24.2,N/A,,Clear,40,2013-08-08 05:53:00